FENGYUN 1C DEB, 38519

Orbit data source: Space-Track

FENGYUN 1C DEB, 38519 is space debris in SSO originally from a launch on Mon, 10 May 1999 UTC launched from the Taiyaun Space Center, China (TSC). Fengyun 1C debris stems from the Chinese weather satellite Fengyun-1C, which was intentionally destroyed by a Chinese anti-satellite missile in 2007. This event dramatically increased the amount of space debris, with thousands of trackable fragments posing hazards to satellites and human spaceflight. The Fengyun 1C debris cloud has become a focal point in discussions about space sustainability and the need for international regulations to prevent the creation of new debris.

Loading next visibility...
Identifier
38519, 1999-025ETE
Orbit
SSO
Country
Flag of CNCN / PRC
Related business
Manufacturer
Unknown
Mission
Spacecraft
Bus & Motor
Unknown
Mass
Unknown
Launch date (UTC)
1999-05-10 (27 years ago)
Launch vehicle
Unknown
Launch site
Taiyaun Space Center, China (TSC)
Object type
Payload
Rocket body
Debris
Shape & HBR
Unknown shape, 1.1 m
Radar Cross Section
Small (<0.1 m²)

Expand to show TLE details & history
Last TLE update: 2 months ago

TLE from 2 months ago
0 FENGYUN 1C DEB
1 38519U 99025ETE 26062.15749397  .00001858  00000-0  14318-2 0  9993
2 38519  99.5415  44.6067 0168433 188.1814 171.6588 13.87885134858537
Epoch: 2026-03-03T03:46Z
TLE epoch observation values (Epoch: 2026-03-03T03:46:47.479Z)
Latitude
-0.00005°
Longitude
-173.0317°
Altitude
1,060.853 km
Speed
7.26 km/s
True Right ascension
02h 58m 25s
True Declination
0° 00' 00"
Sunlit
Object was in daylight at epoch
Visualization orbit readout
Latitude
Unknown
Longitude
Unknown
Altitude
Unknown
Speed
Unknown
Apparent Right ascension
Unknown
Apparent Declination
Unknown
Sunlit
N/A
Visualization observer readout
Local Sidereal Time
10:29:24
Azimuth
Unknown
Elevation
Unknown
Doppler factor
Unknown
Orbital elements
Apogee altitude
1,056.442 km
Perigee altitude
810.145 km
Semi-major axis
7,311.43 km
Eccentricity
0.01684
Inclination
99.5415°
RAAN
44.6067°
Arg. of periapsis
188.1814°
True anomaly
171.93308°
Mean anomaly
171.6588°
Eccentric anomaly
171.7965°
Mean motion
3.47168 °/min
Orbital period
103.7 mins
BSTAR
0.0014318
Loading maneuver chart data...
Computing Atmospheric mass density...

Documentation

Showing up to 5 results
|